www.pogodaiklimat.ru

Погода и климат >> Архив погоды >> Финляндия >> Остров Каллан


ПОГОДА на Острове Каллан

  • Прогноз погоды на Острове Каллан
  • Монитор погоды на Острове Каллан

АРХИВ ПОГОДЫ на Острове Каллан

Время (UTC), дата Ветер
(напр.,м/с)
 
Видим.   Явления Облачность Т
(С)
Тd
(С)
f
(%)
Тe
(С)
Тes
(С)
Комфортность P
(гПа)
Po
(гПа)
Тmin
(С)
Tmax
(С)
R
(мм)
R24
(мм)
S
(см)
22 11.06 С 6 н/о н/о +7.0 +1.9 70 +3 +3 1030.6 1028.3
23 11.06 СВ 6 н/о н/о +7.0 +1.5 68 +3 +3 1030.4 1028.1
00 12.06 С 7 н/о н/о +7.0 +1.8 69 +2 +2 1030.7 1028.4
01 12.06 СВ 6 н/о н/о +6.9 +2.5 74 +3 +3 1030.9 1028.6
02 12.06 СВ 5 н/о н/о +7.2 +2.2 71 +3 +3 1031.1 1028.8
03 12.06 СВ 5 н/о н/о +7.4 +3.0 74 +4 +4 1031.2 1028.9
04 12.06 СВ 5 н/о н/о +7.8 +2.3 68 +4 +4 1031.1 1028.8
05 12.06 СВ 6 н/о н/о +8.4 -0.4 54 +5 +5 1031.4 1029.2
06 12.06 СВ 5 н/о н/о +7.6 +3.7 76 +4 +4 1031.7 1029.4 +6.7 +8.9
07 12.06 С 10 н/о н/о +7.5 +3.3 75 +2 +2 1031.1 1028.9
08 12.06 С 10 н/о н/о +7.6 +2.4 70 +2 +2 1030.9 1028.7
09 12.06 С 10 н/о н/о +7.7 +2.3 69 +3 +3 1031.3 1029.0
10 12.06 С 11 н/о н/о +7.9 +2.2 67 +3 +3 1030.6 1028.4
11 12.06 С 11 н/о н/о +7.9 +2.6 69 +3 +3 1030.3 1028.0
12 12.06 С 11 н/о н/о +8.3 +1.8 64 +3 +3 1029.3 1027.1
13 12.06 С 10 н/о н/о +8.6 +2.5 65 +4 +4 1028.9 1026.6
14 12.06 СВ 9 н/о н/о +9.7 +1.2 55 +6 +6 1028.6 1026.3
15 12.06 СВ 10 н/о н/о +10.2 +1.0 53 +6 +6 1027.8 1025.6
16 12.06 СВ 10 н/о н/о +10.2 +1.7 56 +6 +6 1027.4 1025.2
17 12.06 СВ 8 н/о н/о +10.1 +2.8 60 +6 +6 1027.0 1024.8
18 12.06 СВ 8 н/о н/о +10.7 +2.7 58 +7 +7 1026.7 1024.5 +7.4 +10.7
19 12.06 СВ 6 н/о н/о +10.6 +3.9 63 +8 +8 1026.5 1024.3
20 12.06 В 5 н/о н/о +10.3 +5.2 71 +7 +7 1026.6 1024.4
21 12.06 В 5 н/о н/о +10.9 +6.0 72 +8 +8 1026.4 1024.2
22 12.06 В 5 н/о н/о +11.5 +5.2 65 +9 +9 1026.5 1024.3
23 12.06 ЮВ 6 н/о н/о +12.0 +4.3 59 +9 +9 1026.2 1024.0
00 13.06 ЮВ 8 н/о н/о +11.4 +3.3 57 +8 +8 1025.8 1023.6
01 13.06 ЮВ 8 н/о н/о +10.7 +2.9 59 +7 +7 1025.6 1023.3
02 13.06 ЮВ 7 н/о н/о +10.1 +3.6 64 +7 +7 1025.2 1023.0
03 13.06 ЮВ 7 н/о н/о +10.2 +4.1 66 +7 +7 1025.0 1022.7
04 13.06 ЮВ 7 н/о н/о +10.6 +4.4 65 +7 +7 1024.5 1022.2
05 13.06 В 7 н/о н/о +11.1 +4.6 64 +8 +8 1024.1 1021.9
06 13.06 В 8 н/о н/о +11.4 +4.1 61 +8 +8 1023.6 1021.4 +9.9 +12.3
07 13.06 В 9 н/о н/о +12.3 +3.5 55 +9 +9 1023.4 1021.1
08 13.06 В 9 н/о н/о +12.9 +4.0 55 +10 +10 1023.1 1020.9
09 13.06 ЮВ 8 н/о н/о +13.1 +3.9 54 +11 +11 1023.0 1020.8
10 13.06 ЮВ 9 н/о н/о +13.2 +4.3 55 +10 +10 1022.7 1020.5
11 13.06 ЮВ 12 н/о н/о +13.4 +4.2 54 +10 +10 1022.0 1019.8
12 13.06 В 11 н/о н/о +13.8 +4.6 54 +11 +11 1021.5 1019.3
13 13.06 В 10 н/о н/о +14.5 +4.5 51 +12 +12 1020.8 1018.6
14 13.06 В 9 н/о н/о +14.8 +5.1 52 +13 +13 1020.4 1018.2
15 13.06 ЮВ 9 н/о н/о +13.8 +5.3 56 +11 +11 1020.0 1017.8
16 13.06 В 10 н/о н/о +13.6 +5.1 56 +11 +11 1019.6 1017.4
17 13.06 В 8 н/о н/о +13.2 +5.9 61 +11 +11 1019.9 1017.7
18 13.06 В 8 н/о н/о +13.0 +5.8 62 +10 +10 1019.9 1017.7 +11.4 +14.8
19 13.06 В 8 н/о н/о +13.0 +5.7 61 +10 +10 1019.7 1017.5
20 13.06 В 8 н/о н/о +12.7 +6.3 65 +10 +10 1020.0 1017.8
21 13.06 В 8 н/о н/о +12.8 +6.1 64 +10 +10 1019.7 1017.5
22 13.06 В 7 н/о н/о +12.6 +6.2 65 +10 +10 1019.5 1017.3
23 13.06 В 6 н/о н/о +12.5 +6.2 65 +10 +10 1019.2 1017.0
00 14.06 В 4 н/о н/о +12.3 +6.4 67 +10 +10 1018.8 1016.5
01 14.06 СВ 3 н/о н/о +12.3 +6.5 68 +11 +11 1019.0 1016.8
02 14.06 СВ 4 н/о н/о +11.8 +6.6 70 +10 +10 1018.5 1016.3
03 14.06 СВ 6 н/о н/о +11.8 +7.0 72 +9 +9 1018.1 1015.9
04 14.06 В 6 н/о н/о +12.3 +6.8 69 +10 +10 1018.0 1015.8
05 14.06 В 3 н/о н/о +12.7 +7.3 70 +11 +11 1017.9 1015.7
06 14.06 В 4 н/о н/о +13.3 +7.6 68 +12 +12 1018.1 1015.9 +11.0 +13.3
07 14.06 В 2 н/о н/о +13.7 +7.8 68 +13 +13 1018.2 1016.0
08 14.06 СВ 3 н/о н/о +11.2 +8.0 81 +9 +9 1017.9 1015.7
09 14.06 С 4 н/о н/о +10.8 +8.1 83 +8 +8 1017.8 1015.6
10 14.06 С 7 н/о н/о +10.1 +7.7 85 +6 +6 1017.5 1015.3
11 14.06 С 8 н/о н/о +10.2 +7.3 82 +6 +6 1017.3 1015.1
12 14.06 С 8 н/о н/о +10.4 +7.0 79 +7 +7 1016.8 1014.6
13 14.06 С 7 н/о н/о +10.6 +7.3 80 +7 +7 1016.5 1014.2
14 14.06 С 8 н/о н/о +10.4 +7.4 82 +7 +7 1016.1 1013.9
15 14.06 СВ 5 н/о н/о +10.6 +6.9 78 +8 +8 1015.7 1013.5
16 14.06 СВ 2 н/о н/о +13.0 +6.8 66 +12 +12 1015.5 1013.3
17 14.06 СВ 2 н/о н/о +13.6 +6.1 60 +13 +13 1015.0 1012.8
18 14.06 штиль 0 н/о н/о +12.9 +6.2 64 +13 +13 1014.5 1012.3 +9.6 +14.5
19 14.06 ЮЗ 5 н/о н/о +11.4 +8.1 80 +9 +9 1014.6 1012.4
20 14.06 З 7 н/о н/о +9.3 +7.4 88 +5 +5 1014.8 1012.6
21 14.06 СЗ 6 н/о н/о +9.0 +6.2 83 +5 +5 1015.0 1012.8
22 14.06 СЗ 7 н/о н/о +9.4 +6.2 80 +5 +5 1015.0 1012.8
23 14.06 З 6 н/о н/о +8.7 +7.9 95 +5 +5 1014.9 1012.7
00 15.06 СЗ 6 н/о н/о +8.6 +8.0 96 +4 +4 1014.7 1012.5
01 15.06 З 6 н/о н/о +8.7 +7.8 94 +5 +5 1014.6 1012.3
02 15.06 З 4 н/о н/о +11.5 +8.9 84 +9 +9 1014.4 1012.2
03 15.06 З 4 н/о н/о +9.0 +6.4 84 +6 +6 1014.7 1012.5
04 15.06 З 5 н/о н/о +9.4 +6.4 82 +6 +6 1015.1 1012.9
05 15.06 ЮЗ 4 н/о н/о +9.0 +7.4 90 +6 +6 1015.4 1013.2
06 15.06 ЮЗ 6 н/о н/о +9.0 +8.4 96 +5 +5 1015.5 1013.2 +8.4 +12.9
07 15.06 ЮЗ 4 н/о н/о +9.1 +8.2 94 +6 +6 1016.0 1013.7
08 15.06 ЮЗ 3 н/о н/о +10.4 +8.4 87 +8 +8 1016.3 1014.1
09 15.06 ЮЗ 3 н/о н/о +9.6 +9.3 98 +7 +7 1016.5 1014.2
10 15.06 ЮЗ 4 н/о н/о +9.6 +9.4 99 +7 +7 1016.6 1014.4
11 15.06 ЮЗ 5 н/о н/о +9.3 +9.1 99 +6 +6 1017.0 1014.8
12 15.06 З 6 н/о н/о +10.1 +9.9 99 +6 +6 1017.1 1014.8
13 15.06 З 6 н/о н/о +10.2 +10.0 99 +7 +7 1016.9 1014.6
14 15.06 ЮЗ 5 н/о н/о +10.9 +10.4 97 +8 +8 1017.1 1014.8
15 15.06 З 5 н/о н/о +10.8 +10.3 97 +8 +8 1017.0 1014.8
16 15.06 З 6 н/о н/о +10.7 +10.0 95 +7 +7 1016.8 1014.5
17 15.06 З 5 н/о н/о +10.4 +9.6 95 +7 +7 1016.7 1014.5
18 15.06 З 5 н/о н/о +10.6 +9.7 94 +8 +8 1016.3 1014.1 +8.9 +11.3
19 15.06 З 5 н/о н/о +10.7 +9.5 92 +8 +8 1016.2 1014.0
20 15.06 ЮЗ 7 н/о н/о +11.2 +9.5 89 +8 +8 1015.6 1013.4
21 15.06 З 7 н/о н/о +10.5 +9.3 92 +7 +7 1015.6 1013.4
22 15.06 ЮЗ 7 н/о н/о +10.6 +9.2 91 +7 +7 1015.6 1013.4
23 15.06 ЮЗ 6 н/о н/о +9.9 +9.0 94 +6 +6 1015.5 1013.3
00 16.06 ЮЗ 6 н/о н/о +9.7 +9.0 95 +6 +6 1015.2 1013.0
01 16.06 ЮЗ 7 н/о н/о +9.9 +9.2 95 +6 +6 1014.9 1012.6
02 16.06 ЮЗ 8 н/о н/о +10.4 +9.6 95 +6 +6 1014.8 1012.6
03 16.06 ЮЗ 7 н/о н/о +10.7 +9.7 94 +7 +7 1014.6 1012.3
04 16.06 ЮЗ 8 н/о н/о +10.4 +9.4 94 +6 +6 1014.4 1012.2
05 16.06 ЮЗ 8 н/о н/о +10.7 +9.4 92 +7 +7 1014.4 1012.2
06 16.06 ЮЗ 8 н/о н/о +11.6 +10.0 90 +8 +8 1014.3 1012.1 +9.6 +11.6
07 16.06 ЮЗ 10 н/о н/о +11.6 +9.9 89 +8 +8 1013.9 1011.7
08 16.06 ЮЗ 9 н/о н/о +11.9 +10.0 88 +8 +8 1014.0 1011.8
09 16.06 ЮЗ 9 н/о н/о +11.9 +10.0 88 +8 +8 1013.5 1011.3
10 16.06 З 9 н/о н/о +11.0 +9.4 90 +7 +7 1013.6 1011.4
11 16.06 З 11 н/о н/о +10.3 +9.1 92 +6 +6 1013.5 1011.3
12 16.06 ЮЗ 9 н/о н/о +11.5 +9.7 89 +8 +8 1013.1 1010.9
13 16.06 ЮЗ 9 н/о н/о +11.8 +9.9 88 +8 +8 1012.8 1010.6
14 16.06 ЮЗ 8 н/о н/о +12.3 +10.0 86 +9 +9 1012.4 1010.2
15 16.06 ЮЗ 7 н/о н/о +12.3 +10.1 86 +9 +9 1012.3 1010.1
16 16.06 ЮЗ 7 н/о н/о +12.5 +9.9 84 +10 +10 1012.1 1009.9
17 16.06 ЮЗ 8 н/о н/о +13.3 +10.1 81 +11 +11 1011.7 1009.5
18 16.06 ЮЗ 10 н/о н/о +13.7 +10.5 81 +11 +11 1011.4 1009.2 +10.2 +13.8
19 16.06 ЮЗ 9 н/о н/о +12.8 +10.2 84 +10 +10 1011.2 1009.0
20 16.06 ЮЗ 8 н/о н/о +13.1 +10.8 86 +10 +10 1010.9 1008.7
21 16.06 ЮЗ 10 н/о н/о +12.6 +10.1 85 +9 +9 1010.8 1008.6
22 16.06 ЮЗ 10 н/о н/о +12.6 +10.1 85 +9 +9 1010.7 1008.5
23 16.06 ЮЗ 10 н/о н/о +12.3 +10.1 86 +9 +9 1010.5 1008.3
00 17.06 Ю 8 н/о н/о +12.7 +10.1 84 +10 +10 1010.1 1007.9
01 17.06 Ю 7 н/о н/о +12.7 +10.3 85 +10 +10 1010.1 1007.9
02 17.06 Ю 7 н/о н/о +13.0 +10.1 83 +10 +10 1009.7 1007.5
03 17.06 Ю 7 н/о н/о +12.2 +10.2 88 +9 +9 1009.4 1007.3
04 17.06 Ю 6 н/о н/о +12.5 +10.2 86 +10 +10 1009.2 1007.1
05 17.06 Ю 7 н/о н/о +13.1 +10.1 82 +10 +10 1009.2 1007.0
06 17.06 Ю 6 н/о н/о +14.0 +10.3 78 +12 +12 1009.0 1006.8 +11.9 +14.0
07 17.06 Ю 6 н/о н/о +15.5 +10.6 73 +14 +14 1008.6 1006.5
08 17.06 Ю 6 н/о н/о +15.2 +11.2 77 +14 +14 1008.7 1006.5
09 17.06 Ю 7 н/о н/о +16.9 +11.8 72 +16 +16 1008.2 1006.1
10 17.06 ЮЗ 8 н/о н/о +16.9 +11.7 71 +16 +16 1008.1 1005.9
11 17.06 ЮЗ 10 н/о н/о +14.9 +10.8 76 +12 +12 1008.2 1006.1
12 17.06 ЮЗ 11 н/о н/о +15.1 +11.0 76 +13 +13 1008.1 1006.0
13 17.06 ЮЗ 13 н/о н/о +15.3 +11.6 79 +13 +13 1008.1 1005.9
14 17.06 ЮЗ 11 н/о н/о +15.6 +12.2 80 +13 +13 1007.9 1005.7
15 17.06 ЮЗ 12 н/о н/о +15.1 +12.2 83 +12 +12 1007.5 1005.3
16 17.06 ЮЗ 14 н/о н/о +15.5 +12.2 81 +13 +13 1007.0 1004.9
17 17.06 ЮЗ 12 н/о н/о +15.3 +12.1 81 +13 +13 1007.2 1005.1
18 17.06 ЮЗ 9 н/о н/о +13.6 +11.3 86 +11 +11 1007.8 1005.6 +13.6 +17.4
19 17.06 ЮЗ 9 н/о н/о +13.9 +11.6 86 +11 +11 1007.7 1005.5
20 17.06 ЮЗ 6 н/о н/о +14.9 +11.5 80 +13 +13 1007.2 1005.0
21 17.06 З 7 н/о н/о +12.2 +10.5 89 +9 +9 1007.4 1005.2
22 17.06 З 7 н/о н/о +11.2 +10.0 92 +8 +8 1007.6 1005.4
23 17.06 З 4 н/о н/о +10.9 +10.1 95 +8 +8 1007.7 1005.5
00 18.06 ЮЗ 6 н/о н/о +11.1 +10.4 95 +8 +8 1007.7 1005.5
01 18.06 ЮЗ 6 н/о н/о +10.8 +10.2 96 +7 +7 1008.0 1005.8
02 18.06 ЮЗ 5 н/о н/о +11.6 +10.5 93 +9 +9 1007.8 1005.6
03 18.06 ЮЗ 8 н/о н/о +12.0 +10.8 92 +9 +9 1008.1 1005.9
04 18.06 ЮЗ 6 н/о н/о +11.3 +9.9 91 +8 +8 1008.4 1006.3
05 18.06 З 6 н/о н/о +11.1 +9.8 92 +8 +8 1008.7 1006.5
06 18.06 ЮЗ 6 н/о н/о +11.6 +9.6 88 +9 +9 1009.1 1006.9 +10.6 +16.4
07 18.06 ЮЗ 7 н/о н/о +12.1 +10.1 88 +9 +9 1009.2 1007.0
08 18.06 ЮЗ 7 н/о н/о +12.8 +10.2 84 +10 +10 1009.3 1007.1
09 18.06 ЮЗ 8 н/о н/о +12.3 +10.7 90 +9 +9 1009.5 1007.3
10 18.06 ЮЗ 10 н/о н/о +12.7 +10.9 89 +9 +9 1009.5 1007.3
11 18.06 ЮЗ 10 н/о н/о +16.0 +10.2 68 +14 +14 1009.2 1007.1
12 18.06 ЮЗ 12 н/о н/о +14.7 +10.7 77 +12 +12 1009.2 1007.0
13 18.06 ЮЗ 13 н/о н/о +14.2 +10.7 79 +11 +11 1009.3 1007.1
14 18.06 ЮЗ 13 н/о н/о +14.9 +10.8 76 +12 +12 1009.2 1007.0
15 18.06 ЮЗ 11 н/о н/о +14.2 +10.9 81 +11 +11 1009.1 1006.9
16 18.06 ЮЗ 13 н/о н/о +14.9 +10.9 77 +12 +12 1008.6 1006.4
17 18.06 ЮЗ 12 н/о н/о +15.0 +10.6 75 +12 +12 1008.2 1006.0
18 18.06 ЮЗ 13 н/о н/о +14.8 +10.6 76 +12 +12 1008.1 1005.9 +11.5 +16.2
19 18.06 ЮЗ 11 н/о н/о +14.3 +10.7 79 +11 +11 1008.1 1006.0
20 18.06 ЮЗ 12 н/о н/о +14.6 +10.6 77 +12 +12 1008.3 1006.1
21 18.06 З 6 н/о н/о +13.8 +10.1 78 +12 +12 1008.6 1006.5
22 18.06 ЮЗ 7 н/о н/о +13.2 +10.2 82 +11 +11 1008.2 1006.1
23 18.06 ЮЗ 6 н/о н/о +12.9 +10.4 85 +10 +10 1008.4 1006.3

 

Местоположение метеостанции Остров Каллан (Финляндия): широта 63.75 долгота 22.52 высота над уровнем моря 2 м.

В архиве по умолчанию представлена погода на Острове Каллан за последнюю неделю. Архивные данные за месяц целиком и за предыдущие месяцы, начиная с января 2011 года, Вы можете получить, выбрав интересующий диапазон дат из раскрывающегося списка и нажав кнопку "Ввод!".


*Определитесь, кто Вы:
робот инопланетянин человек

Внимание! Время в таблицах - всемирное. Для получения местного времени необходимо прибавить поправку, которая равна 1 ч.

Смотрите также архив погоды в соседних городах и на ближайших метеорологических станциях:

Погода на Танкаре (Финляндия) (27 км)
Погода в Круунупюу (Финляндия) (31 км)
Погода в Кокколе (Финляндия) (31 км)
Погода в Каухаве (Финляндия) (73 км)
Погода на Острове Улкокалла (Финляндия) (79 км)
Погода на Маяке Valassaaret (Финляндия) (80 км)
Погода в Лаитале (Финляндия) (81 км)
Погода на Хольмёне (Швеция) (81 км)
Погода в Васе (Финляндия) (85 км)
Погода в Йлистаро Пелма (Финляндия) (90 км)

Пояснения к столбцам:

Ветер - указаны скорость ветра в м/с - средняя за 10 мин, порывы в срок и между сроками (в фигурных скобках) и направление, откуда дует ветер: С - северный, СВ - северо-восточный, В - восточный, ЮВ - юго-восточный, Ю - южный, ЮЗ - юго-западный, З - западный, СЗ - северо-западный.
Видимость - горизонтальная дальность видимости в метрах или километрах. При видимости от 1 до 10 км при отсутствии осадков обычно наблюдается дымка, при ухудшении видимости до 1 км и менее - туман. В сухую погоду видимость может ухудшаться дымом, пылью или мглою.
Явления - указаны атмосферные явления, наблюдавшиеся в срок или в последний час перед сроком; фигурными скобками обозначены явления, наблюдавшиеся между сроками (за 1-3 часа до срока); квадратными скобками обозначены град или гололедные отложения с указанием их диаметра в мм.
Облачность - указаны через наклонную черту общая и нижняя облачность в баллах и высота нижней границы облаков в метрах; квадратными скобками обозначены формы облаков: Ci - перистые, Cs - перисто-слоистые, Cc - перисто-кучевые, Ac - высококучевые, As - высокослоистые, Sc - слоисто-кучевые, Ns - слоисто-дождевые, Cu - кучевые, Cb - кучево-дождевые. Подробнее классификацию облаков см. в Атласе облаков (PDF).
T - Температура воздуха - температура, измеренная на высоте 2 м над землей.
Td - Температура точки росы - температура, при понижении до которой содержащийся в воздухе водяной пар достигнет насыщения.
f - Относительная влажность воздуха - влажноcть воздуха, измеренная на высоте 2 м над землей.
Te - Эффективная температура - температура, которую ощущает одетый по сезону человек в тени. Характеристика душности погоды. При расчете учитывается влияние влажности воздуха и скорости ветра на теплоощущения человека.
Tes - Эффективная температура на солнце - температура, которую ощущает человек, с поправкой на солнечный нагрев. Характеристика знойности погоды. Зависит от высоты солнца над горизонтом, облачности и скорости ветра. Ночью, в пасмурную погоду, а также при ветре 12 м/с и более поправка равна нулю.
P - Атмосферное давление - приведенное к уровню моря атмосферное давление.
Po - Атмосферное давление - измеренное на уровне метеостанции атмосферное давление.
Tmin - Минимальная температура - минимум температуры воздуха на высоте 2 м над землей.
Tmax - Максимальная температура - максимум температуры воздуха на высоте 2 м над землей.
R - Количество осадков - Количество выпавших осадков за период времени, мм. При наведении курсора мыши на число - период времени, за который выпало указанное количество осадков.
R24 - Количество осадков - Количество выпавших осадков за 24 часа, мм.
S - Снежный покров - Высота снежного покрова, см. При наведении курсора мыши на число - состояние снежного покрова и степень покрытия местности в баллах.